OpenBCM V1.13 (Linux)

Packet Radio Mailbox

DB0FHN

[JN59NK Nuernberg]

 Login: GUEST





  
CX2SA  > KEPS     17.12.04 07:35l 277 Lines 7264 Bytes #999 (0) @ AMSAT
BID : ORB04351.D
Read: DK3TB GUEST
Subj: Orbital Elements  04351.MICROS
Path: DB0FHN<DB0THA<DB0ERF<DB0FBB<DB0ACC<DB0EA<DB0RES<ON0BEL<VE2RXY<CX2SA
Sent: 041217/0526Z @:CX2SA.LAV.URY.SA #:51683 [Minas] FBB7.00e $:ORB04351.D
From: CX2SA@CX2SA.LAV.URY.SA
To  : KEPS@AMSAT


HR AMSAT ORBITAL ELEMENTS FOR THE MICROSATS
FROM WA5QGD FORT WORTH,TX December 16, 2004
SEND SUBSCRIBE/UNSUBSCRIBE TO majordomo@amsat.org ONLY
BID: ORB04351.D
TO ALL RADIO AMATEURS BT

Satellite: UO-14
Catalog number: 20437
Epoch time:      04351.05035686
Element set:     663
Inclination:       98.1992 deg
RA of node:         4.9737 deg
Eccentricity:    0.0011273
Arg of perigee:    24.2914 deg
Mean anomaly:     335.8789 deg
Mean motion:   14.31388367 rev/day
Decay rate:        2.5e-07 rev/day^2
Epoch rev:           77783
Checksum:              323

Satellite: AO-16
Catalog number: 20439
Epoch time:      04351.64757603
Element set:     352
Inclination:       98.2266 deg
RA of node:        20.4948 deg
Eccentricity:    0.0011846
Arg of perigee:    28.5693 deg
Mean anomaly:     331.6127 deg
Mean motion:   14.31648996 rev/day
Decay rate:        8.9e-07 rev/day^2
Epoch rev:           77797
Checksum:              338

Satellite: WO-18
Catalog number: 20441
Epoch time:      04350.96285776
Element set:     542
Inclination:       98.2399 deg
RA of node:        24.0228 deg
Eccentricity:    0.0012356
Arg of perigee:    32.0618 deg
Mean anomaly:     328.1316 deg
Mean motion:   14.31723357 rev/day
Decay rate:        5.7e-07 rev/day^2
Epoch rev:           77793
Checksum:              304

Satellite: LO-19
Catalog number: 20442
Epoch time:      04351.56187482
Element set:     278
Inclination:       98.2493 deg
RA of node:        28.8104 deg
Eccentricity:    0.0012739
Arg of perigee:    28.7498 deg
Mean anomaly:     331.4386 deg
Mean motion:   14.31895470 rev/day
Decay rate:        5.4e-07 rev/day^2
Epoch rev:           77808
Checksum:              331

Satellite: UO-22
Catalog number: 21575
Epoch time:      04351.39058688
Element set:     280
Inclination:       98.2208 deg
RA of node:       317.8832 deg
Eccentricity:    0.0006386
Arg of perigee:   281.6603 deg
Mean anomaly:      78.3879 deg
Mean motion:   14.39445551 rev/day
Decay rate:       1.11e-06 rev/day^2
Epoch rev:           70420
Checksum:              313

Satellite: KO-23
Catalog number: 22077
Epoch time:      04351.36923705
Element set:     340
Inclination:       66.0862 deg
RA of node:       169.3175 deg
Eccentricity:    0.0012927
Arg of perigee:   298.9492 deg
Mean anomaly:      61.0237 deg
Mean motion:   12.86428038 rev/day
Decay rate:       -3.7e-07 rev/day^2
Epoch rev:           58007
Checksum:              305

Satellite: AO-27
Catalog number: 22825
Epoch time:      04350.97065204
Element set:      14
Inclination:       98.2459 deg
RA of node:       350.2510 deg
Eccentricity:    0.0009470
Arg of perigee:    87.3357 deg
Mean anomaly:     272.8910 deg
Mean motion:   14.29102810 rev/day
Decay rate:      -1.14e-06 rev/day^2
Epoch rev:           58505
Checksum:              281

Satellite: IO-26
Catalog number: 22826
Epoch time:      04351.87298414
Element set:     683
Inclination:       98.2411 deg
RA of node:       352.3938 deg
Eccentricity:    0.0009962
Arg of perigee:    80.7852 deg
Mean anomaly:     279.4458 deg
Mean motion:   14.29342180 rev/day
Decay rate:        4.9e-07 rev/day^2
Epoch rev:           58524
Checksum:              336

Satellite: KO-25
Catalog number: 22828
Epoch time:      04351.00052972
Element set:     946
Inclination:       98.2339 deg
RA of node:       351.7944 deg
Eccentricity:    0.0010926
Arg of perigee:    63.8988 deg
Mean anomaly:     296.3311 deg
Mean motion:   14.29658923 rev/day
Decay rate:       -2.4e-07 rev/day^2
Epoch rev:           55334
Checksum:              325

Satellite: TO-31
Catalog number: 25396
Epoch time:      04351.60836226
Element set:     128
Inclination:       98.5560 deg
RA of node:        58.1356 deg
Eccentricity:    0.0002577
Arg of perigee:    15.8563 deg
Mean anomaly:     344.2707 deg
Mean motion:   14.23649140 rev/day
Decay rate:       -4.3e-07 rev/day^2
Epoch rev:           33443
Checksum:              293

Satellite: GO-32
Catalog number: 25397
Epoch time:      04350.84374265
Element set:     626
Inclination:       98.5463 deg
RA of node:        55.2509 deg
Eccentricity:    0.0001593
Arg of perigee:    47.3379 deg
Mean anomaly:     312.7933 deg
Mean motion:   14.23063753 rev/day
Decay rate:       1.01e-06 rev/day^2
Epoch rev:           33425
Checksum:              299

Satellite: UO-36
Catalog number: 25693
Epoch time:      04351.64102566
Element set:     740
Inclination:       64.5586 deg
RA of node:       124.2935 deg
Eccentricity:    0.0041312
Arg of perigee:   235.0121 deg
Mean anomaly:     124.7078 deg
Mean motion:   14.78436642 rev/day
Decay rate:        3.7e-07 rev/day^2
Epoch rev:           30483
Checksum:              286

Satellite: SO-41
Catalog number: 26545
Epoch time:      04350.59291204
Element set:     952
Inclination:       64.5569 deg
RA of node:       143.1500 deg
Eccentricity:    0.0030071
Arg of perigee:   336.9609 deg
Mean anomaly:      23.0095 deg
Mean motion:   14.79960302 rev/day
Decay rate:       1.35e-06 rev/day^2
Epoch rev:           22775
Checksum:              285

Satellite: MO-46
Catalog number: 26548
Epoch time:      04351.60131377
Element set:      55
Inclination:       64.5566 deg
RA of node:       124.9279 deg
Eccentricity:    0.0029515
Arg of perigee:   324.3475 deg
Mean anomaly:      35.5635 deg
Mean motion:   14.82544844 rev/day
Decay rate:       2.21e-06 rev/day^2
Epoch rev:           22821
Checksum:              303

Satellite: SO-42
Catalog number: 26549
Epoch time:      04350.71458589
Element set:      11
Inclination:       64.5556 deg
RA of node:       150.4050 deg
Eccentricity:    0.0030225
Arg of perigee:   346.2858 deg
Mean anomaly:      13.7421 deg
Mean motion:   14.78848471 rev/day
Decay rate:       2.79e-06 rev/day^2
Epoch rev:           22762
Checksum:              304

Satellite: NO-44
Catalog number: 26931
Epoch time:      04351.13264700
Element set:     923
Inclination:       67.0543 deg
RA of node:       339.2414 deg
Eccentricity:    0.0007403
Arg of perigee:   268.5252 deg
Mean anomaly:      91.4978 deg
Mean motion:   14.29347591 rev/day
Decay rate:       -1.0e-07 rev/day^2
Epoch rev:           16760
Checksum:              290

Satellite: AO-49
Catalog number: 27605
Epoch time:      04351.31087580
Element set:     611
Inclination:       64.5594 deg
RA of node:       331.3334 deg
Eccentricity:    0.0085565
Arg of perigee:   275.7998 deg
Mean anomaly:      83.3322 deg
Mean motion:   14.72000799 rev/day
Decay rate:       1.86e-06 rev/day^2
Epoch rev:           10693
Checksum:              319

Satellite: SO-50
Catalog number: 27607
Epoch time:      04350.46683159
Element set:     593
Inclination:       64.5589 deg
RA of node:       338.5227 deg
Eccentricity:    0.0086542
Arg of perigee:   274.9091 deg
Mean anomaly:      84.2139 deg
Mean motion:   14.70829088 rev/day
Decay rate:       4.14e-06 rev/day^2
Epoch rev:           10671
Checksum:              330

Satellite: AO-51
Catalog number: 28375
Epoch time:      04351.23057755
Element set:     134
Inclination:       98.2397 deg
RA of node:        54.8049 deg
Eccentricity:    0.0085226
Arg of perigee:    63.6908 deg
Mean anomaly:     297.2999 deg
Mean motion:   14.40419992 rev/day
Decay rate:       1.39e-06 rev/day^2
Epoch rev:            2427
Checksum:              337



Read previous mail | Read next mail


 15.09.2026 05:17:47lGo back Go up